Flag for Germany Weather past 2 weeks in Hagen, North Rhine-Westphalia, Germany

Now
39 °F

Passing clouds.


Feels Like: 33 °F
Forecast: 37 / 46 °F
Wind: 9 mph from West

Location: Dortmund / Wickede

Current Time: Dec 21, 2014 at 12:53:02 AM

Latest Report: Dec 20, 2014 at 10:50 PM


Visibility: N/A

Pressure: 30.27 "Hg

Humidity: 87%

Dew point: 36 °F

Location of HagenLocation

Historic Weather in Hagen — Graph

°F

Hagen temperature yesterday

Maximum temperature yesterday: 43 °F (at 10:50 AM)
Minimum temperature yesterday: 37 °F (at 5:50 PM)
Average temperature yesterday: 41 °F

Past Weeks' High & Low Weather Summary

 TemperatureHumidityPressure
High54 °F (Dec 18, 5:20 PM)93% (Dec 6, 5:50 AM)30.36 "Hg (Dec 6, 5:50 AM)
Low32 °F (Dec 14, 10:50 PM)57% (Dec 7, 2:20 PM)29.39 "Hg (Dec 12, 12:50 PM)
Average41 °F82%29.92 "Hg
* Reported Dec 5 10:20 PM — Dec 20 10:50 PM, Hagen, Weather by CustomWeather, © 2014

Note: Actual official high and low records may vary slightly from our data, if they occured in-between our weather recording intervals... More about our weather records

Advertising

Hagen weather history for previous 24 hours

 ConditionsComfort  
Time TempWeatherWind HumidityBarometerVisibility
10:50 PM
Dec 20
39 °FPassing clouds.9 mph87%30.27 "HgN/A
10:20 PM39 °FPassing clouds.9 mph87%30.24 "HgN/A
9:50 PM39 °FLight rain. Partly cloudy.8 mph87%30.24 "HgN/A
9:20 PM39 °FLight rain. Passing clouds.8 mph87%30.21 "HgN/A
8:50 PM39 °FLight rain. Passing clouds.8 mph87%30.21 "HgN/A
8:20 PM39 °FLight rain. Passing clouds.10 mph81%30.18 "HgN/A
7:50 PM41 °FLight rain. Passing clouds.12 mph81%30.15 "HgN/A
7:20 PM41 °FLight rain. Passing clouds.13 mph81%30.12 "HgN/A
6:50 PM43 °FLight rain. Passing clouds.14 mph76%30.12 "HgN/A
6:20 PM41 °FLight rain. Passing clouds.13 mph81%30.09 "HgN/A
5:50 PM37 °FThundershowers. Passing clouds.18 mph81%30.09 "Hg4 mi
5:20 PM43 °FPassing clouds.20 mph76%30.04 "HgN/A
4:50 PM43 °FLight rain. Passing clouds.17 mph76%30.04 "HgN/A
4:20 PM43 °FLight rain. Partly sunny.20 mph76%30.04 "HgN/A
3:50 PM43 °FLight rain. Partly sunny.22 mph76%30.01 "HgN/A
3:20 PM43 °FPartly sunny.22 mph81%30.01 "HgN/A
2:50 PM43 °FLight rain. Partly sunny.21 mph81%30.01 "HgN/A
2:20 PM43 °FLight rain. Partly sunny.18 mph81%30.01 "HgN/A
1:50 PM41 °FLight rain. Partly sunny.22 mph87%30.01 "HgN/A
1:20 PM41 °FLight rain. Partly sunny.21 mph87%30.04 "HgN/A
12:50 PM43 °FSprinkles. Partly sunny.21 mph76%30.04 "HgN/A
12:20 PM43 °FSprinkles. Partly sunny.22 mph76%30.04 "Hg5 mi
11:50 AM43 °FSprinkles. Partly sunny.22 mph76%30.04 "Hg4 mi
11:20 AM41 °FPartly sunny.23 mph81%30.07 "HgN/A
10:50 AM43 °FPartly sunny.21 mph76%30.07 "HgN/A
10:20 AM41 °FScattered clouds.23 mph81%30.07 "HgN/A
9:50 AM41 °FScattered clouds.23 mph81%30.07 "HgN/A
9:20 AM41 °FScattered clouds.23 mph81%30.07 "HgN/A
8:50 AM41 °FPartly sunny.21 mph81%30.07 "HgN/A
8:20 AM41 °FPassing clouds.23 mph81%30.07 "HgN/A
7:50 AM41 °FPassing clouds.22 mph76%30.07 "HgN/A
7:20 AM41 °FPassing clouds.18 mph81%30.07 "HgN/A
6:50 AM41 °FPassing clouds.22 mph81%30.09 "HgN/A
6:20 AM41 °FPassing clouds.21 mph81%30.09 "HgN/A
5:50 AM41 °FPassing clouds.21 mph81%30.09 "HgN/A
5:20 AM41 °FPassing clouds.18 mph76%30.09 "HgN/A
Weather by CustomWeather, © 2014

See weather overviewHow to use our weather pages